Location: White Mills Observatory
(37.5374°N, 86.0303°W)
Time: 08:27:25
(UTC-04:00)

HST - Visible Passes

Search period start: 02 October 2014 00:00
Search period end: 12 October 2014 00:00
Orbit: 547 x 551 km, 28.5° (Epoch: 01 October)

Date Brightness Start Highest point End Pass type
(mag) Time Alt. Az. Time Alt. Az. Time Alt. Az.
05 Oct 3.5 06:07:49 10° SSE 06:08:28 10° SSE 06:09:07 10° SSE visible
06 Oct 3.2 06:00:06 12° S 06:01:12 13° SSE 06:03:05 10° SE visible
07 Oct 3.0 05:53:31 15° S 05:53:55 15° SSE 05:56:23 10° SE visible
08 Oct 2.9 05:46:54 18° SSE 05:46:54 18° SSE 05:49:28 10° SE visible
09 Oct 2.9 05:40:15 19° SSE 05:40:15 19° SSE 05:42:27 10° ESE visible
09 Oct 2.5 07:16:58 10° SW 07:20:16 23° S 07:23:35 10° SE visible
10 Oct 3.0 05:33:34 18° SE 05:33:34 18° SE 05:35:21 10° ESE visible
10 Oct 2.6 07:09:47 10° WSW 07:13:01 22° S 07:16:15 10° SE visible
11 Oct 3.2 05:26:53 16° SE 05:26:53 16° SE 05:28:11 10° ESE visible
11 Oct 2.6 07:02:39 10° WSW 07:05:45 20° S 07:08:51 10° SE visible
